Regional Weather Roundup
Issued by NWS

Home | Current Version | Previous Version | Text Only | Print | Product List | Glossary Off
Versions: 1 2 3 4 5 6 7 8 9 10 11 12 13 14 15 16 17 18 19 20 21 22 23 24 25 26 27 28 29 30 31 32 33 34 35 36 37 38 39 40 41 42 43 44 45 46 47 48 49 50

000
ASUS43 KMKX 011800
RWRWI

WISCONSIN REGIONAL WEATHER ROUNDUP
NATIONAL WEATHER SERVICE MILWAUKEE/SULLIVAN WI
1200 PM CST SUN FEB 01 2015

NOTE: "FAIR" INDICATES FEW OR NO CLOUDS BELOW 12,000 FEET WITH NO
SIGNIFICANT WEATHER AND/OR OBSTRUCTIONS TO VISIBILITY.

WIZ001-002-006>008-014>016-023>028-011900-
NORTHWEST WISCONSIN

CITY           SKY/WX    TMP DP  RH WIND       PRES   REMARKS
SUPERIOR ARPT  MOSUNNY   10  -7  45 NE13G18   30.39F WCI  -5
ASHLAND        CLOUDY    10   4  76 N23       30.34F HAZE    WCI -10
6HR MIN TEMP:   8; 6HR MAX TEMP:  10; 6HR PCP: TRACE;

HAYWARD        CLOUDY    11   2  67 NE17      30.26F HAZE    WCI  -6
6HR MIN TEMP:   7; 6HR MAX TEMP:  11; 6HR PCP: TRACE;

SIREN          CLOUDY    13   3  65 NE12G22   30.29F WCI  -1
CUMBERLAND     CLOUDY    12   1  62 NE15G22   30.22F WCI  -4
RICE LAKE      CLOUDY    13   1  59 NE17G24   30.25F WCI  -4
CHETEK         CLOUDY    12   0  58 MISG      30.23F
LADYSMITH      CLOUDY    11   1  64 NE16      30.24F WCI  -5
EAU CLAIRE     CLOUDY    13   0  56 NE15      30.20F WCI  -3
6HR MIN TEMP:  11; 6HR MAX TEMP:  13; 6HR PCP: TRACE;

MENOMONIE      CLOUDY    14   2  58 N14       30.23S WCI  -1
NEW RICHMOND   CLOUDY    14   2  60 NE16G24   30.24F WCI  -2
OSCEOLA        CLOUDY    15   3  60 NE15      30.29F WCI  -1
$$

WIZ003>005-009-010-017-018-011900-
NORTH CENTRAL WISCONSIN

CITY           SKY/WX    TMP DP  RH WIND       PRES   REMARKS
MANITOWISH WTR CLOUDY     8  -1  66 NE10G18   30.21F WCI  -7
ARBOR VITAE    CLOUDY    11   2  66 NE13      30.20F WCI  -4
WOODRUFF       CLOUDY    11   2  66 NE13      30.20F WCI  -4
RHINELANDER    CLOUDY     8  -1  66 NE13G21   30.17F WCI  -8
6HR MIN TEMP:   5; 6HR MAX TEMP:   8;

EAGLE RIVER    CLOUDY     8  -1  65 NE16      30.19F WCI  -9
LAND O LAKES   CLOUDY     8   0  69 NE8G17    30.21F WCI  -4
PHILLIPS       CLOUDY     8   0  69 NE15G21   30.20F WCI -10
TOMAHAWK       CLOUDY    10   0  64 NE5G17    30.18F WCI   2
MEDFORD        CLOUDY    10   1  66 NE14G20   30.15F WCI  -6
MERRILL        CLOUDY    11   2  65 NE13G21   30.17F WCI  -4
$$

WIZ029-030-035-036-043>047-011900-
CENTRAL WISCONSIN

CITY           SKY/WX    TMP DP  RH WIND       PRES   REMARKS
WAUSAU         CLOUDY    12   2  64 NE13G21   30.14F WCI  -3
6HR MIN TEMP:  10; 6HR MAX TEMP:  12;

MOSINEE        NOT AVBL
MARSHFIELD     CLOUDY    13   2  61 NE18G26   30.12F WCI  -4
6HR MIN TEMP:  10; 6HR MAX TEMP:  13; 6HR PCP: TRACE;

STEVENS POINT  CLOUDY    10   1  66 NE21G28   30.15F WCI  -9
WAUPACA        LGT SNOW  14   6  71 NE15G26   30.16F WCI  -1
WAUTOMA        LGT SNOW  12   7  79 NE18G28   30.12F VSB 1   WCI  -5
WISC RAPIDS    MIX PCPN  13   1  59 NE16G24   30.14F WCI  -3
6HR MIN TEMP:  11; 6HR MAX TEMP:  13; 6HR PCP: TRACE;

CAMP DOUGLAS   NOT AVBL
$$

WIZ011>013-019>022-031-037>040-048>050-011900-
NORTHEAST WISCONSIN

CITY           SKY/WX    TMP DP  RH WIND       PRES   REMARKS
ANTIGO         CLOUDY    10   2  72 NE15      30.15F WCI  -7
SHAWANO        CLOUDY    13   1  61 NE18G24   30.21F WCI  -5
OCONTO         CLOUDY     9  -1  64 NE14G26   30.24F WCI  -7
STURGEON BAY   CLOUDY    10   3  72 NE15G24   30.21F WCI  -6
6HR MIN TEMP:   9; 6HR MAX TEMP:  12;

GREEN BAY      MIX PCPN  10   3  73 NE31G39   30.17F WCI -13
6HR MIN TEMP:  10; 6HR MAX TEMP:  14; 6HR PCP: TRACE;

MANITOWOC      NOT AVBL
APPLETON       LGT SNOW  10   5  79 NE24G32   30.12F WCI -10
CLINTONVILLE   CLOUDY    12   1  62 NE15G24   30.19F WCI  -4
OSHKOSH        HVY SNOW  11   6  81 NE28G40   30.09F VSB 1/4 WCI -10
6HR MIN TEMP:  11; 6HR MAX TEMP:  14; 6HR PCP: TRACE;

$$

WIZ032>034-041-042-053>061-011900-
SOUTHWEST WISCONSIN

CITY           SKY/WX    TMP DP  RH WIND       PRES   REMARKS
LA CROSSE      LGT SNOW  17   9  70 NE8       30.12F WCI   7
6HR MIN TEMP:  16; 6HR MAX TEMP:  17; 6HR PCP:  0.08;

SPARTA         LGT SNOW  15   9  79 NE12      30.12F WCI   1
VIROQUA        CLOUDY    14  10  83 NE16G24   30.04S WCI  -2
BOSCOBEL       LGT SNOW  18  12  77 NE12G21   30.03S VSB 1   WCI   5
6HR MIN TEMP:  17; 6HR MAX TEMP:  19; 6HR PCP:  0.05;

PRAIRIE DU CHI MIX PCPN  19  12  74 N10G25    30.02S WCI   7
PLATTEVILLE    CLOUDY    19  16  89 N24G32    29.92S VSB 1   WCI   1
$$

WIZ056-057-062-063-064-067-068-011900-
SOUTH CENTRAL WISCONSIN

CITY           SKY/WX    TMP DP  RH WIND       PRES   REMARKS
REEDSBURG      LGT SNOW  14  10  82 NE13G20   30.05F WCI   0
BARABOO/DELLS  LGT SNOW  14  10  85 NE14G26   30.04F VSB 1   WCI  -1
LONE ROCK      NOT AVBL
MINERAL POINT  LGT SNOW  19  14  79 NE22G31   29.93S WCI   3
MADISON        SNOW      15  11  83 NE25G36   29.99S VSB 1/2 WCI  -4
6HR MIN TEMP:  15; 6HR MAX TEMP:  16; 6HR PCP:  0.11;

MIDDLETON      CLOUDY    19  13  79 NE25G31   29.99F WCI   1
WATERTOWN      LGT SNOW  20  17  85 NE15G25   29.97F WCI   7
MONROE         LGT SNOW  21  19  93 NE25      29.88F WCI   4
JANESVILLE     LGT SNOW  25  19  80 NE28G33   29.89F VSB 1   WCI   8
$$

WIZ051-052-058>065-066-070>072-011900-
SOUTHEAST WISCONSIN

CITY           SKY/WX    TMP DP  RH WIND       PRES   REMARKS
MILWAUKEE      SNOW      23  19  85 NE28G35   29.97F VSB 1/4 WCI   6
6HR MIN TEMP:  22; 6HR MAX TEMP:  25; 6HR PCP:  0.16;

WAUKESHA       NOT AVBL
MILWAUKEE/TIMM NOT AVBL
RACINE         SNOW      23  19  85 NE25G33   29.95F VSB 1/4 WCI   7
6HR MIN TEMP:  23; 6HR MAX TEMP:  26; 6HR PCP: TRACE;

BURLINGTON     LGT SNOW  22  19  89 NE16      29.92F WCI   8
KENOSHA        HVY SNOW  24  21  88 NE24G33   29.92F VSB 1/4 WCI   8
6HR MIN TEMP:  24; 6HR MAX TEMP:  27; 6HR PCP:  0.02;

FOND DU LAC    FOG       12   8  84 N26       30.08F VSB 1/2 WCI  -8
6HR MIN TEMP:  12; 6HR MAX TEMP:  16; 6HR PCP:  0.02;

SHEBOYGAN      SNOW      19  15  84 NE25      30.06F VSB 1/2 WCI   1
6HR MIN TEMP:  18; 6HR MAX TEMP:  21; 6HR PCP:  0.01;

WEST BEND      LGT SNOW  19  16  86 NE20G30   30.01F WCI   4
JUNEAU         LGT SNOW  17  13  83 N15G32    30.02F WCI   2
$$

LSZ147-162-011900-
LAKE SUPERIOR

STATION/POSITION TIME  TEMP    WIND        PRES    WAVE
                       AIR SEA DIR/SP/G            HT/PER
                 (UTC) (F)     (DEG/KT/KT) (MB)    (FT/S)
DEVILS ISLAND    1700    8      40/ 13/ 16 1031.3F
PORT WING        1722   13      30/ 18/ 25 1028.8F
SAXON HARBOR     1700   14      60/ 10/ 13 1027.4F
$$

LMZ867-665-643>646-011900-
LAKE MICHIGAN

STATION/POSITION TIME  TEMP    WIND        PRES    WAVE
                       AIR SEA DIR/SP/G            HT/PER
                 (UTC) (F)     (DEG/KT/KT) (MB)    (FT/S)
NORTHPORT PIER   1700   10      40/ 17/ 25 1025.7S
SISTER BAY       1643   11      30/ 12/ 14   N/A
KEWAUNEE LAKESHO 1700   18      40/ 24/ 30 1021.0F
SHEBOYGAN LAKESH 1700   20      40/ 28/ 31 1020.7F
PORT WASHINGTON  1720   24      60/ 21     1018.6F
MILWAUKEE LAKESH 1700   24      50/ 29/ 33   N/A
KENOSHA   LAKESH 1700   25      60/ 30/ 35 1013.9F
$$

TC  - TEMPERATURE IN CELSIUS
VSB - VISIBILITY IN STATUTE MILES
WCI - WIND CHILL INDEX
HX  - HEAT INDEX




USA.gov is the U.S. government's official web portal to all federal, state and local government web resources and services.